Temperature
21 22 22 22 22 21 20 19 19 20 19 20 19 19 19 20 20 21 21 21 21 21 21 20 20 20 20 20 20 19 19 19 19 19 18 18 18 18 17 17 17 17 17 17
22 22 22 22 22 21 21 20 20 20 20 19 19 19 19 20 20 20 21 21 21 21 20 20 20 20 20 20 19 19 19 19 19 18 18 18 18 17 17 17 17 17 17 16
20 21 22 21 21 21 21 20 20 20 19 18 18 18 19 19 20 20 20 21 21 20 20 20 20 20 19 19 19 19 19 19 18 18 18 18 17 17 17 17 17 16 16 16
17 20 21 20 20 20 20 20 19 19 18 18 18 18 19 19 19 20 20 20 20 20 20 20 20 19 19 19 19 19 18 18 18 17 17 17 17 17 17 16 16 16 16 16
16 18 19 20 20 20 20 19 18 18 18 18 18 18 18 19 19 20 20 20 20 20 20 20 19 19 19 18 18 18 18 18 17 17 17 17 17 17 16 16 16 16 16 16
16 19 19 20 20 20 20 19 19 18 17 17 18 17 17 19 19 19 19 19 19 19 19 19 19 18 18 18 18 18 18 17 17 17 17 16 16 16 16 16 16 16 15 15
16 17 18 19 19 20 20 19 19 19 18 18 17 17 18 19 19 19 19 19 19 19 19 18 18 18 18 17 17 17 17 17 16 16 16 16 16 16 16 15 15 15 15 15
14 17 18 19 19 19 18 19 19 19 19 18 18 18 18 18 19 19 19 18 18 18 18 18 17 17 17 17 17 17 16 16 16 16 16 15 15 15 15 15 15 15 15 15
15 16 17 17 18 19 19 19 19 19 19 19 18 18 18 18 18 18 18 18 18 17 17 17 17 17 17 17 16 16 16 16 16 16 15 15 15 15 15 15 15 15 15 15
14 15 16 17 18 19 19 19 19 19 19 19 18 17 17 17 17 17 17 17 17 17 17 17 17 16 16 16 16 15 15 15 15 15 15 15 15 14 14 14 14 14 15 15
14 15 16 18 18 19 19 19 18 18 18 18 18 17 17 17 17 17 17 17 17 17 16 16 16 16 16 16 15 15 15 15 15 15 14 14 14 14 14 14 14 14 14 14
14 16 15 17 18 18 18 18 18 18 17 17 17 17 17 16 16 16 16 16 16 16 16 16 16 15 15 15 15 15 15 15 14 14 14 14 14 14 14 14 13 14 14 14
17 17 17 17 18 18 18 18 18 18 17 17 17 16 16 16 16 16 16 16 16 16 15 15 15 15 15 15 15 14 14 14 14 14 14 14 13 13 13 13 13 13 13 13
17 17 16 17 17 17 17 17 17 17 17 16 16 16 16 16 15 15 15 15 15 15 15 15 15 15 14 14 14 14 14 14 14 13 13 13 13 13 13 13 13 13 13 13
17 17 17 17 17 17 17 17 16 16 16 16 16 16 16 15 15 15 15 15 15 15 14 14 14 14 14 14 14 14 13 13 13 13 13 13 13 13 12 12 12 12 12 12
16 17 16 16 16 16 16 16 16 16 16 15 15 15 15 15 15 14 14 14 14 14 14 14 14 14 13 13 13 13 13 13 13 13 13 13 12 12 12 12 12 12 12 12
15 15 16 15 16 16 16 16 16 15 15 15 15 15 14 14 14 14 14 14 14 14 14 14 14 13 13 13 13 12 12 13 12 12 12 12 12 12 12 12 12 11 11 11
16 16 16 16 15 15 15 15 15 15 15 14 14 14 14 14 14 14 14 13 13 13 13 13 13 13 13 13 12 12 12 12 12 12 12 12 12 12 11 11 11 11 11 11
15 15 15 15 15 15 15 14 14 14 14 14 14 14 14 14 13 13 13 13 13 13 13 13 13 13 12 12 12 12 11 11 11 11 11 11 11 11 11 11 11 11 10 10
15 14 14 14 14 14 14 14 14 14 14 14 13 13 13 13 13 13 13 13 13 13 12 12 12 12 12 12 12 11 11 11 11 11 11 11 10 10 10 10 10 10 10 10
14 14 14 14 14 14 14 14 13 13 13 13 13 13 13 13 13 13 13 12 13 12 12 12 12 12 12 12 11 11 11 11 11 11 11 10 10 10 10 10 10 10 10 10
13 13 13 13 13 13 13 13 13 13 13 13 13 13 13 13 13 13 12 12 12 12 12 12 11 11 11 11 11 11 11 10 10 10 10 10 10 10 10 9 9 9 9 9
13 13 13 13 13 13 13 13 13 13 13 13 13 12 12 12 12 12 12 12 12 11 11 11 11 11 11 11 11 11 10 10 10 10 10 10 10 9 9 9 9 9 9 9
12 12 12 12 12 13 13 13 13 13 12 12 12 12 12 12 12 12 11 11 11 11 11 11 11 11 11 10 10 10 10 10 10 10 10 9 9 9 9 9 9 9 8 8
12 12 12 12 12 12 12 12 12 12 12 12 12 12 11 11 11 11 11 11 11 11 11 11 11 10 10 10 10 10 10 10 9 9 9 9 9 9 9 8 8 8 8 8
12 12 12 12 12 12 12 12 12 12 12 12 12 11 11 11 11 11 11 11 11 11 10 10 10 10 10 10 10 9 9 9 9 9 9 8 8 8 8 8 8 8 8 8
12 12 12 12 12 12 12 12 12 12 11 11 11 11 11 11 11 11 11 11 10 10 10 10 10 10 10 10 9 9 9 9 9 9 8 8 8 8 8 8 8 7 7 7
Wind_Speed
3 2 3 2 2 4 4 6 7 6 6 6 5 4 4 2 2 2 2 2 2 2 2 1 1 2 1 2 1 1 1 2 4 3 2 2 2 2 2 2 3 3 3 3
1 1 2 2 0 3 2 2 3 2 5 4 2 1 0 1 3 2 1 2 2 2 1 2 2 2 2 2 2 1 2 3 3 2 2 2 2 2 2 3 3 3 3 3
2 2 3 2 4 4 3 2 5 5 6 2 1 1 2 2 2 2 2 1 2 2 3 3 3 2 3 2 2 2 3 3 2 2 3 3 3 3 4 4 3 3 3 4
3 3 3 7 2 3 4 1 2 3 2 3 3 1 0 1 1 2 2 3 3 2 2 2 2 1 1 1 1 2 3 3 3 3 3 3 3 4 4 4 4 4 4 4
4 3 3 5 2 2 4 2 2 3 2 2 3 4 3 2 0 2 3 2 2 2 1 1 1 1 0 1 1 2 3 4 4 3 3 4 4 5 4 4 4 4 4 5
5 5 6 6 3 1 4 3 2 4 5 4 4 2 3 2 1 0 1 0 0 0 1 1 1 1 1 1 2 3 4 4 4 4 4 5 5 5 4 4 5 4 4 5
4 4 6 6 4 2 3 6 3 5 6 5 3 4 3 1 1 1 1 1 0 1 1 1 1 1 1 2 3 5 4 4 3 4 5 5 4 3 3 4 4 4 5 5
4 3 6 3 2 5 6 2 3 4 4 4 3 2 2 1 1 2 2 2 1 1 1 1 1 1 1 3 5 4 4 4 4 3 4 3 3 3 3 3 3 4 4 5
7 6 5 3 4 3 3 3 3 4 4 5 3 2 1 1 1 2 2 2 2 2 2 2 1 1 2 4 4 4 4 4 4 4 3 3 3 3 3 2 3 4 4 4
1 4 4 4 2 2 2 2 2 4 4 5 4 3 2 1 1 1 2 2 1 2 2 3 3 2 3 4 3 3 3 3 3 3 3 3 2 3 3 3 3 4 4 5
1 3 3 4 3 2 0 2 2 3 3 4 6 4 3 2 1 0 1 1 1 0 1 3 4 4 4 3 3 3 3 3 3 2 2 3 3 3 3 4 4 5 4 4
6 7 5 5 4 2 2 2 3 4 3 2 4 4 2 2 1 1 1 1 1 1 2 3 3 4 5 4 2 2 2 3 2 2 2 2 2 3 4 4 6 6 5 5
5 4 4 4 2 1 3 2 2 3 4 3 2 3 3 2 1 1 2 1 2 3 3 3 3 4 5 4 3 2 3 3 2 2 2 2 2 2 4 5 5 5 6 6
4 3 2 2 3 2 3 3 2 2 1 2 2 2 2 1 1 2 3 3 3 2 3 3 4 5 5 4 3 3 3 3 2 2 2 2 2 2 3 3 4 5 5 6
3 3 5 3 2 1 2 4 4 2 1 1 1 1 2 2 2 3 4 3 2 2 3 3 4 5 5 4 3 3 3 2 2 2 2 2 2 2 3 3 4 4 4 5
2 2 3 3 3 2 2 3 3 1 1 1 1 1 1 2 2 3 3 2 2 4 4 4 5 5 4 3 4 3 2 3 2 2 2 2 2 2 3 3 3 4 4 4
4 3 3 3 3 2 2 2 3 3 2 2 2 2 1 1 2 3 4 4 4 4 5 5 6 5 4 4 3 3 2 3 3 2 2 2 2 3 3 3 3 3 4 4
4 5 5 5 4 3 1 1 1 2 2 3 3 2 2 2 3 5 5 4 3 4 4 4 4 4 4 4 3 3 2 2 2 2 2 3 3 2 2 2 3 4 4 4
2 3 2 2 3 3 2 1 2 2 2 3 3 3 3 4 4 5 4 3 3 5 6 5 5 4 4 5 4 2 2 2 2 2 2 3 2 2 2 2 3 3 4 3
2 2 2 1 1 1 1 2 2 2 3 2 2 3 3 4 4 4 4 4 5 5 4 5 4 4 4 4 4 2 2 2 2 2 2 2 2 2 2 3 3 3 3 3
2 2 2 1 1 1 1 2 2 3 3 3 3 4 5 5 4 3 3 4 5 4 3 4 3 3 3 3 3 2 2 2 2 2 2 2 2 2 2 2 3 3 3 3
1 1 1 1 1 2 2 2 2 2 3 3 3 3 3 3 3 3 4 4 4 4 3 2 3 3 3 2 2 2 2 2 2 2 2 2 2 2 2 3 3 3 3 3
1 1 1 1 1 2 3 3 3 2 3 3 3 4 3 3 3 2 3 3 3 3 2 2 3 3 2 1 1 1 1 2 2 2 2 2 2 2 2 3 3 3 3 3
1 2 2 2 1 1 3 4 3 2 2 3 3 3 3 2 2 3 3 4 3 2 1 2 3 2 1 1 1 1 1 2 2 2 2 1 1 2 2 2 3 3 3 4
1 2 2 2 2 2 3 3 3 2 2 2 3 3 2 2 3 2 2 1 1 1 1 2 3 2 0 1 1 1 1 2 1 1 1 1 1 2 2 2 2 3 3 3
2 2 3 3 3 3 2 2 2 2 2 2 3 2 2 1 1 1 1 1 1 1 2 2 2 1 1 1 1 1 1 1 1 1 1 1 2 2 2 2 2 2 2 2
2 2 2 3 3 2 2 2 2 3 2 2 2 2 1 1 0 0 1 1 1 2 2 2 2 1 1 1 1 1 1 1 1 1 1 1 1 2 2 2 2 2 2 2
Wind_Direction
192 199 161 152 161 151 155 175 180 217 220 244 238 232 231 207 165 136 135 148 164 177 199 221 240 264 269 278 277 261 248 256 258 261 262 262 264 261 252 243 241 237 232 236
63 33 106 82 194 182 186 172 194 215 253 253 226 164 187 191 157 156 192 195 192 197 209 231 238 247 269 269 260 243 245 262 272 274 269 264 260 255 249 250 247 242 237 231
212 299 53 298 248 203 192 194 173 210 242 212 168 159 205 212 187 191 215 209 212 226 229 233 236 232 250 251 262 258 262 270 272 264 264 267 269 260 255 252 249 249 244 236
126 95 208 243 263 170 166 224 224 230 240 197 190 177 62 161 188 224 227 216 221 236 251 253 237 238 247 266 278 278 283 288 282 270 268 272 263 259 258 253 247 247 247 242
123 159 264 291 271 175 173 257 238 188 158 118 108 65 21 355 197 221 229 228 229 244 257 256 246 234 155 325 300 293 290 288 281 275 274 269 262 261 258 251 252 251 251 244
124 148 219 246 281 263 122 274 253 166 159 146 111 98 260 286 317 293 321 323 294 15 46 8 325 3 57 300 290 284 286 284 276 268 267 262 260 265 264 252 254 256 258 254
140 183 249 257 283 95 150 243 225 176 174 162 175 201 212 227 318 12 7 349 24 98 82 311 349 58 26 314 292 289 293 294 285 268 264 262 261 263 269 263 264 266 268 271
138 163 246 278 124 171 219 232 172 172 174 169 170 163 148 136 61 26 19 13 33 65 27 352 18 57 330 297 294 304 302 301 292 276 276 283 276 276 270 259 266 273 278 286
179 206 243 271 232 242 185 181 192 176 178 163 152 136 104 68 45 20 22 28 39 65 18 353 344 322 287 292 304 314 315 306 301 296 286 278 271 273 279 269 264 271 271 276
178 270 279 288 280 291 214 217 212 175 163 152 149 145 131 114 57 20 14 22 40 59 20 334 325 316 288 299 307 312 310 307 303 295 297 296 279 259 255 260 261 264 266 271
217 264 313 314 292 270 77 95 100 108 134 150 143 148 153 149 158 8 356 341 36 64 304 302 313 311 305 304 307 308 309 307 304 296 283 291 290 274 266 257 250 249 259 262
215 218 200 241 261 219 144 141 135 120 99 119 144 152 153 178 209 226 263 292 305 286 277 286 295 300 305 312 311 302 309 309 306 302 299 293 292 312 307 288 286 270 266 266
214 211 201 225 251 199 165 159 150 142 153 160 172 162 165 190 234 264 285 273 257 265 275 284 290 295 299 304 304 279 277 285 294 298 297 293 294 301 315 324 319 305 298 292
198 162 182 219 218 204 149 140 124 110 130 160 174 164 156 185 243 265 269 264 260 273 285 289 294 297 299 302 298 289 282 277 283 285 286 288 285 285 290 304 317 319 314 305
228 197 190 184 162 137 133 124 113 101 76 44 133 160 170 193 240 257 265 270 278 288 289 294 293 292 299 303 299 290 285 281 275 276 282 284 285 285 286 290 294 303 316 322
194 135 139 147 160 175 148 137 143 185 190 201 213 240 240 236 262 269 268 262 262 273 276 274 276 282 292 298 299 296 289 295 289 283 291 294 292 292 294 294 296 303 309 316
159 173 171 176 187 189 200 200 192 206 211 216 233 237 244 269 291 284 274 265 254 261 265 260 267 280 283 280 279 283 289 294 302 302 295 293 291 288 292 298 306 313 314 322
191 199 189 178 177 174 194 203 200 205 220 233 236 231 235 241 261 276 279 281 287 295 285 272 273 278 276 274 270 273 273 278 284 285 292 296 298 292 292 299 308 310 316 326
138 152 163 164 166 166 185 207 227 242 244 235 229 238 248 255 259 271 279 277 276 281 286 290 289 275 269 269 271 258 260 273 289 297 298 301 301 307 307 305 305 306 313 319
79 102 112 108 115 160 204 236 231 244 251 241 239 254 268 269 264 266 272 269 260 256 273 290 291 278 268 265 265 254 253 260 273 289 299 300 296 298 301 298 301 305 311 312
54 57 66 43 323 285 240 230 230 248 256 242 234 246 260 271 272 259 265 276 279 271 274 281 283 279 270 264 256 248 246 255 270 280 283 285 291 294 298 301 304 307 310 311
28 21 357 332 305 310 302 283 253 252 263 268 263 257 259 272 284 281 261 250 267 274 272 274 282 277 272 266 246 236 240 254 265 272 274 277 278 279 282 288 291 298 302 303
324 309 306 295 276 279 301 302 281 262 260 263 265 263 258 257 251 249 280 276 268 269 268 276 289 285 276 262 245 241 251 263 271 273 275 279 277 271 272 280 285 291 299 303
298 304 301 299 310 310 302 301 303 285 268 268 264 256 247 256 275 257 244 265 271 274 284 297 307 305 272 238 253 266 265 264 267 269 272 281 286 285 281 282 288 296 300 304
297 310 318 316 301 274 269 287 312 313 310 303 298 286 262 229 234 267 271 271 280 312 329 323 326 331 327 285 273 274 280 282 281 279 297 306 303 296 289 289 293 298 301 305
296 288 284 274 267 262 262 266 279 287 287 296 308 308 307 288 255 280 324 339 346 342 342 336 338 336 332 327 322 313 312 320 8 29 8 347 337 330 324 324 327 329 327 329
308 307 307 309 299 274 258 259 261 271 261 246 273 295 302 308 301 328 50 34 14 358 351 349 355 355 350 352 350 357 22 36 42 37 17 355 345 336 331 333 335 336 339 343
Height
1507 1505 1505 1506 1508 1510 1513 1518 1524 1520 1518 1511 1507 1507 1507 1506 1507 1508 1509 1510 1511 1512 1513 1514 1515 1515 1515 1515 1516 1516 1515 1515 1515 1514 1514 1513 1513 1512 1512 1511 1510 1510 1510 1509
1508 1505 1505 1508 1507 1507 1509 1511 1513 1514 1513 1505 1505 1505 1506 1506 1506 1507 1508 1509 1511 1511 1512 1513 1513 1513 1513 1513 1513 1513 1513 1513 1512 1512 1511 1511 1510 1510 1509 1509 1508 1507 1507 1506
1518 1510 1508 1516 1508 1507 1508 1507 1509 1513 1509 1504 1505 1505 1505 1506 1506 1507 1508 1509 1510 1511 1511 1511 1511 1512 1512 1511 1511 1511 1510 1510 1509 1509 1508 1508 1507 1507 1506 1506 1505 1504 1504 1504
1522 1517 1527 1514 1501 1502 1505 1505 1504 1504 1504 1503 1503 1505 1506 1507 1507 1508 1508 1509 1509 1510 1510 1510 1510 1510 1510 1510 1509 1509 1508 1507 1506 1506 1505 1505 1504 1503 1503 1502 1502 1501 1500 1500
1527 1527 1522 1509 1501 1501 1505 1506 1502 1502 1502 1503 1504 1504 1506 1507 1507 1508 1508 1509 1509 1509 1509 1509 1509 1508 1508 1508 1507 1506 1505 1504 1503 1502 1502 1501 1500 1500 1499 1499 1498 1498 1497 1497
1524 1525 1527 1510 1498 1497 1501 1508 1500 1500 1501 1502 1503 1508 1508 1506 1506 1507 1508 1508 1508 1508 1508 1508 1507 1507 1506 1505 1505 1503 1502 1501 1500 1499 1498 1498 1497 1497 1496 1495 1494 1494 1494 1493
1521 1522 1516 1501 1497 1498 1512 1508 1498 1498 1499 1501 1502 1504 1505 1505 1506 1506 1506 1507 1507 1507 1506 1506 1506 1505 1504 1503 1502 1501 1500 1498 1497 1497 1496 1495 1494 1493 1493 1492 1491 1491 1490 1490
1521 1522 1517 1497 1497 1501 1500 1495 1495 1496 1498 1500 1501 1502 1503 1504 1505 1505 1505 1505 1506 1505 1505 1505 1504 1504 1502 1501 1500 1499 1497 1496 1495 1494 1493 1492 1491 1490 1489 1488 1488 1487 1486 1486
1508 1509 1499 1496 1495 1495 1494 1494 1494 1495 1497 1498 1500 1501 1503 1504 1504 1504 1504 1504 1504 1504 1503 1503 1502 1501 1500 1499 1498 1496 1495 1493 1492 1491 1490 1489 1488 1487 1486 1485 1484 1483 1482 1481
1502 1498 1495 1494 1493 1493 1493 1493 1493 1494 1496 1497 1498 1500 1502 1503 1503 1504 1504 1503 1503 1502 1501 1501 1500 1499 1498 1497 1495 1494 1492 1491 1489 1488 1487 1486 1485 1484 1483 1482 1480 1479 1478 1477
1500 1496 1494 1493 1493 1493 1493 1493 1493 1494 1495 1496 1498 1499 1500 1501 1502 1503 1503 1503 1502 1501 1500 1499 1498 1497 1496 1494 1492 1491 1490 1488 1487 1486 1485 1484 1483 1482 1481 1479 1478 1476 1475 1474
1496 1492 1493 1492 1492 1493 1492 1492 1493 1494 1495 1497 1497 1498 1499 1500 1501 1501 1501 1501 1500 1499 1498 1497 1496 1495 1493 1491 1490 1488 1487 1485 1484 1483 1482 1480 1479 1479 1478 1477 1475 1473 1472 1470
1488 1489 1490 1490 1491 1492 1492 1492 1493 1494 1495 1496 1497 1498 1498 1499 1499 1499 1499 1498 1498 1497 1496 1495 1493 1492 1491 1489 1487 1485 1484 1483 1481 1480 1479 1478 1476 1475 1474 1473 1472 1470 1469 1467
1486 1487 1488 1489 1490 1490 1491 1491 1492 1493 1494 1495 1495 1496 1496 1497 1497 1497 1497 1496 1495 1494 1493 1492 1491 1489 1488 1486 1485 1483 1481 1480 1478 1477 1476 1475 1474 1472 1471 1469 1468 1466 1465 1464
1485 1486 1486 1487 1488 1489 1489 1490 1491 1492 1493 1494 1494 1494 1494 1494 1494 1494 1494 1494 1493 1492 1490 1489 1488 1487 1485 1484 1482 1480 1478 1477 1475 1474 1473 1472 1471 1469 1468 1467 1465 1463 1461 1460
1483 1484 1485 1486 1487 1488 1488 1489 1489 1490 1491 1492 1492 1493 1492 1492 1492 1491 1491 1490 1489 1488 1487 1487 1485 1484 1482 1481 1479 1477 1475 1474 1472 1471 1470 1469 1468 1467 1465 1464 1462 1460 1459 1457
1481 1482 1483 1485 1485 1486 1487 1487 1488 1489 1489 1490 1490 1490 1490 1490 1489 1487 1487 1487 1486 1485 1485 1483 1482 1481 1479 1478 1476 1474 1472 1471 1469 1468 1467 1466 1465 1464 1463 1461 1460 1458 1457 1456
1480 1481 1482 1483 1484 1485 1486 1486 1487 1487 1487 1488 1488 1487 1487 1486 1485 1485 1484 1483 1483 1482 1481 1480 1479 1477 1476 1475 1473 1471 1469 1468 1467 1465 1464 1463 1462 1461 1460 1459 1458 1456 1455 1454
1479 1480 1481 1482 1483 1483 1484 1484 1485 1485 1485 1486 1485 1485 1484 1484 1483 1482 1481 1480 1478 1477 1476 1476 1475 1474 1473 1472 1471 1469 1467 1466 1464 1463 1462 1461 1460 1459 1458 1457 1456 1454 1453 1452
1478 1479 1480 1481 1481 1482 1482 1482 1483 1483 1483 1483 1483 1482 1481 1481 1480 1479 1478 1477 1475 1474 1474 1473 1472 1470 1469 1469 1468 1466 1465 1463 1462 1460 1460 1459 1458 1457 1456 1455 1454 1453 1451 1450
1478 1479 1479 1480 1480 1480 1480 1480 1480 1480 1480 1480 1479 1479 1478 1478 1477 1476 1475 1473 1472 1472 1471 1470 1469 1468 1467 1466 1465 1463 1462 1461 1460 1458 1457 1456 1455 1455 1454 1453 1452 1451 1449 1448
1479 1479 1479 1479 1479 1478 1478 1478 1478 1477 1477 1477 1476 1475 1475 1474 1473 1473 1472 1471 1469 1468 1467 1466 1465 1464 1463 1462 1461 1460 1459 1458 1457 1456 1455 1454 1453 1452 1451 1450 1449 1448 1447 1445
1478 1478 1478 1478 1478 1477 1477 1477 1476 1475 1474 1474 1473 1473 1472 1471 1470 1470 1468 1468 1467 1465 1464 1463 1462 1462 1461 1459 1458 1458 1457 1456 1454 1453 1452 1452 1451 1450 1449 1448 1447 1445 1444 1442
1477 1477 1477 1476 1476 1475 1475 1474 1474 1473 1472 1472 1471 1470 1469 1468 1468 1467 1466 1465 1464 1463 1462 1461 1460 1459 1458 1457 1456 1455 1454 1453 1452 1451 1450 1449 1448 1447 1446 1445 1444 1442 1441 1439
1476 1476 1475 1474 1474 1473 1473 1472 1471 1471 1470 1470 1469 1468 1467 1467 1466 1465 1464 1463 1462 1461 1460 1459 1458 1457 1456 1455 1454 1453 1452 1451 1450 1449 1448 1447 1445 1444 1443 1442 1441 1439 1438 1436
1475 1474 1474 1473 1472 1472 1471 1470 1469 1469 1468 1468 1467 1466 1466 1465 1464 1464 1463 1462 1461 1460 1459 1458 1457 1455 1454 1453 1452 1451 1450 1449 1448 1447 1446 1445 1443 1442 1441 1439 1438 1437 1435 1434
1473 1473 1472 1471 1471 1470 1469 1468 1467 1467 1467 1466 1465 1465 1464 1464 1463 1463 1462 1461 1460 1460 1458 1457 1455 1454 1453 1452 1451 1450 1448 1448 1447 1446 1445 1443 1442 1441 1439 1438 1437 1435 1434 1432